Location: ASU Dark Sky Observatory
(36.2504°N, 81.4125°W)
Time: 05:26:53
(UTC-04:00)

ETS-7 - Visible Passes

Search period start: 31 July 2014 00:00
Search period end: 10 August 2014 00:00
Orbit: 415 x 419 km, 35.0° (Epoch: 29 July)

Date Brightness Start Highest point End Pass type
(mag) Time Alt. Az. Time Alt. Az. Time Alt. Az.
02 Aug 4.3 05:21:58 14° S 05:23:25 17° SSE 05:25:43 10° ESE visible
03 Aug 4.9 04:34:42 12° SE 04:34:42 12° SE 04:35:22 10° ESE visible
04 Aug 3.2 05:20:15 25° SSW 05:21:32 34° SSE 05:24:38 10° E visible
05 Aug 4.1 04:32:54 22° SE 04:32:54 22° SE 04:34:40 10° E visible
05 Aug 2.3 06:06:11 10° WSW 06:09:31 65° S 06:12:52 10° E visible
06 Aug 2.4 05:18:23 32° SW 05:19:40 58° S 05:22:59 10° E visible
07 Aug 3.7 04:31:01 31° ESE 04:31:01 31° ESE 04:33:04 10° E visible
07 Aug 2.2 06:04:20 10° W 06:07:42 71° S 06:11:03 10° E visible
08 Aug 2.1 05:16:31 35° WSW 05:17:46 72° S 05:21:08 10° E visible
09 Aug 3.7 04:29:12 32° E 04:29:12 32° E 04:31:11 10° E visible
09 Aug 2.4 06:02:26 10° W 06:05:45 55° S 06:09:03 10° ESE visible
